Regional Weather Roundup
Issued by NWS

Home | Current Version | Previous Version | Graphics & Text | Print | Product List | Glossary On
Versions: 1 2 3 4 5 6 7 8 9 10 11 12 13 14 15 16 17 18 19 20 21 22 23 24 25 26 27 28 29 30 31 32 33 34 35 36 37 38 39 40 41 42 43 44 45 46 47 48 49 50
000
ASUS43 KTOP 220708
RWRKS

WEATHER ROUNDUP FOR KANSAS
NATIONAL WEATHER SERVICE GOODLAND KS
200 AM CDT WED OCT 22 2014

NOTE:  "FAIR" INDICATES FEW OR NO CLOUDS BELOW 12,000 FEET WITH NO
SIGNIFICANT WEATHER AND/OR OBSTRUCTIONS TO VISIBILITY.

KSZ001>006-013>018-027>032-041>047-220800-
NORTHWEST KANSAS

CITY           SKY/WX    TMP DP  RH WIND       PRES   REMARKS
GOODLAND       PTCLDY    53  47  79 S13       29.96S
HAYS           PTCLDY    57  48  72 S8        30.00S
HILL CITY      CLEAR     61  52  72 S6        29.98R
RUSSELL        PTCLDY    60  55  83 S9        29.99R
$$

KSZ061>065-074>080-084>089-220800-
SOUTHWEST KANSAS

CITY           SKY/WX    TMP DP  RH WIND       PRES   REMARKS
DODGE CITY     CLEAR     60  50  69 S13       30.02S
ELKHART          N/A     57  45  64 S13         N/A
GARDEN CITY    CLEAR     59  50  72 S15       30.01R
GREAT BEND     PTCLDY    63  54  72 S12       30.01S
LIBERAL        CLEAR     57  46  67 S10       30.04S
PRATT          CLEAR     59  52  77 S9        30.05R
$$

KSZ066>073-081>083-090>101-220800-
SOUTHEAST KANSAS

CITY           SKY/WX    TMP DP  RH WIND       PRES   REMARKS
CHANUTE        CLEAR     58  49  72 SE8       30.09S
COFFEYVILLE    CLEAR     58  52  80 E5        30.08S
HUTCHINSON     CLEAR     62  57  83 SE8       30.03S
MEDICINE LODGE   N/A     62  56  80 SE5       30.03R
NEWTON         CLEAR     59  52  77 SE8       30.07S
PARSONS        CLEAR     62  52  69 VRB3      30.10S
WICHITA INTL   PTCLDY    64  59  83 S9        30.04R
WICHITA JABRA  CLEAR     62  58  86 S8        30.04S
WICHITA MCCONL CLEAR     63  63 100 SE8       30.05S
WINFIELD       CLEAR     64  60  87 SE8       30.06S
$$

KSZ007>012-019>026-033>040-048>060-102>105-220800-
NORTHEAST KANSAS

CITY           SKY/WX    TMP DP  RH WIND       PRES   REMARKS
CONCORDIA      CLEAR     61  56  83 S15       30.01R
EMPORIA        CLEAR     54  49  83 SE6       30.07S
LAWRENCE       CLEAR     50  44  80 E7        30.11R
MANHATTAN      CLEAR     59  52  77 VRB3      30.05R
MARYSVILLE     CLEAR     59  45  58 SE12      30.05R
OLATHE IND     MOCLDY    56  45  66 SE8       30.12S
OLATHE EXE     CLOUDY    55  46  71 SE9       30.12R
SALINA         CLEAR     64  57  78 S12       30.02R
TOPEKA BILLARD PTCLDY    58  46  64 E8        30.09S
TOPEKA FORBES  PTCLDY    56  45  66 SE8       30.08S
$$



USA.gov is the U.S. government's official web portal to all federal, state and local government web resources and services.